Location: *
(45.9500°N, 9.0833°E)
Time: 23:39:00
(UTC+00:00)

Tiros 1 despin weight - Pass Details

Date: 28 June 2021
Orbit: 593 x 642 km, 48.2° (Epoch: 02 August)

Event Time Altitude Azimuth Distance (km) Brightness Sun altitude
Rises 07:50:45 0° 287° (WNW) 2,828 ? 41.2°
Reaches altitude 10° 07:53:13 10° 277° (W) 1,923 ? 41.6°
Maximum altitude 07:57:04 30° 216° (SW) 1,071 ? 42.3°
Drops below altitude 10° 08:00:55 10° 155° (SSE) 1,922 ? 42.9°
Sets 08:03:24 0° 144° (SE) 2,826 ? 43.4°
